Back to catalog

STARLINK-6336

AliveCommunicationsVLEO
NORAD 56788·PAYLOAD·🇺🇸 United States

Launched May 31, 2023 from Vandenberg Space Force Base

Loading…

Next Passes (next 24 hours)

TLE

FreshSource: CelesTrak SupGP

Epoch: Sep 14, 2026, 21:44 UTC

1 56788C 23078X   26257.90604167  .00673770  00000+0  54304-1 0  2572
2 56788  70.0009 207.4003 0003005 268.7279 161.7439 14.99494822    11

Track STARLINK-6336 in real time with AllMySat

Download on the App Store